Current Version              Previous Version:    01  02  03  04  05  06  07  08  09  10  11  12  13  14  15  16  17  18  19  20  21  22  23  24  25  26  27  28  29  30  
   31  32  33  34  35  36  37  38  39  40  41  42  43  44  45  46  47  48  49  50  51  52  53  54  55  56  57  58  59  60  

[Printable]
760
ASUS44 KFWD 201603
RWRTX
NORTH TEXAS HOURLY WEATHER ROUNDUP
NATIONAL WEATHER SERVICE FORT WORTH TX
1100 AM CDT WED AUG 20 2014

NOTE: "FAIR" INDICATES FEW OR NO CLOUDS BELOW 12,000 FEET WITH NO
SIGNIFICANT WEATHER AND/OR OBSTRUCTIONS TO VISIBILITY.

TXZ118-119-201700-
DALLAS/FORT WORTH METROPLEX

CITY           SKY/WX    TMP DP  RH WIND       PRES   REMARKS
DFW AIRPORT    PTSUNNY   88  72  58 S18       29.98R HX  94
DALLAS LOVE    MOSUNNY   86  71  60 S14G24    29.98R HX  91
FTW MEACHAM    MOSUNNY   89  70  53 S15       29.97R HX  94
DAL-EXECUTIVE  MOSUNNY   88  72  58 S12G18    29.99R HX  94
FTW-ALLIANCE   PTSUNNY   87  68  52 SW16G25   29.97R HX  90
FTW-NAS-JRB    PTSUNNY   90  68  48 S16       30.01S HX  94
FTW-SPINKS     MOSUNNY   88  70  55 S10G20    29.99S HX  92
ARLINGTON      SUNNY     86  70  58 S17G24    29.98R HX  90
GRAND PRAIRIE  MOSUNNY   86  70  58 S12G21    30.00R HX  90
ADDISON        PTSUNNY   86  72  62 S10G18    29.99R HX  92
MESQUITE       PTSUNNY   88  72  58 S16G25    30.00R HX  94
LANCASTER      MOSUNNY   87  71  58 S12G17    30.00S HX  93
$$

TXZ091>094-102>105-117-120-121-131>134-201700-
NORTH CENTRAL TEXAS

CITY           SKY/WX    TMP DP  RH WIND       PRES   REMARKS
SHRMAN/DENISON MOSUNNY   87  70  56 S16       29.99S HX  92
GAINESVILLE    PTSUNNY   83  71  68 S14       30.00R
BOWIE          MOSUNNY   82  69  64 S15G21    29.98R
BRIDGEPORT     MOSUNNY   84  66  55 S10       29.99S
DECATUR        MOSUNNY   81  69  67 S8        29.99S
DENTON         MOSUNNY   87  70  56 SW16      29.98S HX  92
MCKINNEY       MOSUNNY   87  73  62 S17       29.98R HX  94
GREENVILLE     MOSUNNY   88  70  55 S13       30.00S HX  92
ROCKWALL       PTSUNNY   86  74  66 S15G21    29.99R HX  94
TERRELL        MOSUNNY   87  73  62 S15       30.00S HX  94
WAXAHACHIE     MOSUNNY   86  69  56 S16G23    30.00S
CLEBURNE       SUNNY     86  73  66 S14G21    30.00R HX  93
GRANBURY       SUNNY     90  68  48 SE17      29.98S HX  94
$$

TXZ083>090-098>101-113>116-127>130-139>142-154-155-201700-
WESTERN NORTH TEXAS

CITY           SKY/WX    TMP DP  RH WIND       PRES   REMARKS
WICHITA FALLS  MOSUNNY   90  60  36 S21G30    29.93R
WF-KICKAPOO    PTSUNNY   88  56  33 S12G21    29.95R
VERNON         SUNNY     90  64  42 S18       29.92S HX  91
ABILENE        SUNNY     85  64  49 S20G32    29.98R
ABILENE-DYESS  SUNNY     84  67  55 S23G29    29.95S
BRECKENRIDGE   PTSUNNY   87  61  41 S20G25    29.96S HAZE
GRAHAM         MOSUNNY   87  63  43 S13G20    29.95R
MINERAL WELLS  SUNNY     84  69  60 S14       29.97R
STEPHENVILLE   SUNNY     85  67  54 S13       30.02S
COMANCHE       SUNNY     86  64  48 S16G25    30.00R
BROWNWOOD      SUNNY     86  64  48 S17G25    29.99S
COLEMAN        SUNNY     82  66  58 S13G23    30.00S
BRADY          SUNNY     82  66  57 S13       30.00S
$$

TXZ143>147-156>162-174-175-201700-
CENTRAL TEXAS

CITY           SKY/WX    TMP DP  RH WIND       PRES   REMARKS
WACO           MOSUNNY   88  71  57 S17       29.99R HX  94
WACO-TSTC      MOSUNNY   90  72  55 SW14      29.99S HX  96
WACO-MCGREGOR  MOSUNNY   90  70  51 S20       30.00S HX  95
HILLSBORO      SUNNY     87  69  53 S22       29.99S HX  91
CORSICANA      PTSUNNY   89  72  56 S20G26    30.01S HX  96
MEXIA          PTSUNNY   86  75  69 S9G16     30.00S HX  94
HEARNE           N/A     89  72  57 S14       30.00S HX  95
CAMERON        MOSUNNY   90  72  56 S12G17    29.99S HX  97
TEMPLE         PTSUNNY   90  70  51 S22       29.98S HX  95
KILLEEN        MOSUNNY   84  70  61 S15G24    29.99R
KILLEEN-SKYLRK SUNNY     88  70  55 S18       29.99S HX  92
FORT HOOD      MOSUNNY   90  69  50 S16G26    29.99S HX  94
GATESVILLE     MOSUNNY   88  70  55 S14G21    30.02R HX  92
HAMILTON       MOSUNNY   87  67  51 S20G25    30.01S
LAMPASAS       MOSUNNY   85  70  60 S13G21    29.99S HX  90
$$

TXZ095>097-106>112-122>126-135>138-148>153-164>167-201700-
EAST TEXAS

CITY           SKY/WX    TMP DP  RH WIND       PRES   REMARKS
PARIS          SUNNY     84  70  61 SW12G20   30.02R
SULPHUR SPRNGS SUNNY     87  69  54 S16       30.03R HX  91
CLARKSVILLE    MOSUNNY   86  74  67 S6        30.02S HX  94
MOUNT PLEASANT SUNNY     86  72  63 S9        30.04R HX  91
GILMER         SUNNY     86  72  62 S8        30.04S HX  92
MINEOLA        CLOUDY    86  73  66 SW8       30.02F HX  93
TYLER          MOSUNNY   87  73  62 SW9       30.02S HX  94
LONGVIEW       SUNNY     87  72  60 S12       30.02S HX  93
MARSHALL       MOSUNNY   89  78  70 S5        30.05S HX 102
ATHENS         MOSUNNY   84  73  70 S13       30.01S HX  91
PALESTINE      MOSUNNY   86  76  71 S9        30.03S HX  96
JACKSONVILLE   MOSUNNY   83  74  75 S9        30.06S HX  90
HENDERSON      SUNNY     84  72  67 S7        30.04F HX  90
NACOGDOCHES    PTSUNNY   84  75  74 S7        30.04S HX  92
LUFKIN         MOSUNNY   88  77  69 S7        30.03S HX 100
$$

SUPPLEMENTAL OBSERVATIONS (CENTRAL)

CITY           SKY/WX    TMP DP  RH WIND       PRES   REMARKS
$$

SUPPLEMENTAL OBSERVATIONS (WEST)

CITY           SKY/WX    TMP DP  RH WIND       PRES   REMARKS
$$

SUPPLEMENTAL OBSERVATIONS (EAST)

CITY           SKY/WX    TMP DP  RH WIND       PRES   REMARKS
$$

SUPPLEMENTAL OBSERVATIONS ARE A COLLECTION OF AUTOMATED INSTRUMENTS
THAT ARE MAINTAINED BY A VARIETY OF FEDERAL AND STATE AGENCIES.
CERTAIN ELEMENTS...SUCH AS HUMIDITY VALUES AND SUSTAINED WIND
SPEEDS...MAY BE APPROXIMATED.